Showing default

ORBCOMM FM 104, 40090

Orbit data source: Space-Track

ORBCOMM FM 104, 40090 is a payload satellite owned by Orbcomm (US) in LEO that was launched on Mon, 14 Jul 2014 UTC via an FALCON 9 launch vehicle from the Air Force Eastern Test Range (AFETR). Payloads include a variety of satellites, spacecraft, and rockets equipped with specific instruments for various scientific and technological missions. These include communications satellites like Starlink; space stations such as the ISS; scientific satellites like the Hubble; Earth observation satellites from companies like Planet Labs, Umbra, and HawkEye 360; GPS; miniature CubeSats for education and research; and military/defense satellites.

Loading next visibility...
ORBCOMM FM 104 details
Identifier
40090, 2014-040E
Orbit
LEO
Last TLE update14 hours ago
Origin
Flag of USOrbcomm (US / ORB)
ManufacturerSNC Louisville
MissionNon-operational Commercial Communications
Bus & MotorSN-100A, Unknown motor
Mass172 kg wet, 158 kg dry
Launch date (UTC)
2014-07-14 (10 years ago)
Launch vehicle
FALCON 9
Launch site
Air Force Eastern Test Range (AFETR)
Object type
Payload
Rocket body
Debris
Shape & HBRBox + 1 Pan + 1 Ant, 13 m
Radar Cross Section2.222 m², Medium (>0.1 m² and < 1m²)

Expand to show TLE details & history

TLE from 14 hours ago
0 ORBCOMM FM 104
1 40090U 14040E   24336.89887371  .00002571  00000-0  61541-3 0  9996
2 40090  47.0046 259.9356 0016648  22.2962 337.8643 14.56024318551866
Epoch: 2024-12-01T21:34Z
Definitive object data (Epoch: 2024-12-01T21:34:22.688Z)
Latitude-0.00005°
Longitude-134.88945°
Altitude695.335 km
Speed7.516 km/s
True Right ascension17h 19m 44s
True Declination0° 00' 00"
Sunlit
Object was in daylight at TLE epoch
Visualization TLE readout
Latitude10.06604°
Longitude32.90171°
Altitude714.686 km
Speed7.496 km/s
Apparent Right ascension01h 48m 46s
Apparent Declination-21° 39' 01"
Sunlit
Object is in full shadow
Visualization observer readout
Local Sidereal Time09:17:09
Azimuth266.105° W
Elevation-30.323°
Doppler factor1
Orbital elements
Apogee altitude719.069 km
Perigee altitude695.477 km
Semi-major axis7,085.41 km
Eccentricity0.0016648
Inclination47.0046°
RAAN259.9356°
Arg. of periapsis22.2962°
True anomaly337.79228°
Mean anomaly337.8643°
Eccentric anomaly337.8283°
Mean motion3.63911 °/min
BSTAR0.00061541
Orbital period98.93 mins
Loading maneuver chart data...
Loading historical data...
Loading historical data...
Loading historical data...
Loading historical data...
Loading historical data...
Loading historical data...
Loading historical data...

ORBCOMM FM 104 Visibility forecast

Observer location: undefined°, undefined

Span
Click to sort rows by Start time (UTC) header in descending order
Start Az.
Max El. time (UTC)
Max El. Az.
Max El.
End time (UTC)
End Az.
6 mins2024-12-02 20:47:25.017Z172.119° S2024-12-02 20:50:25.017Z127.765° SE18.93°2024-12-02 20:53:25.017Z89.463° E
8 mins2024-12-02 22:29:25.017Z239.073° WSW2024-12-02 22:33:25.017Z77.004° E44.649°2024-12-02 22:37:25.017Z62.392° ENE
7 mins2024-12-03 00:14:25.017Z292.087° WNW2024-12-03 00:17:25.017Z356.412° N32.708°2024-12-03 00:21:25.017Z57.694° ENE
7 mins2024-12-03 01:58:25.017Z308.746° NW2024-12-03 02:01:25.017Z3.245° NNE32.817°2024-12-03 02:05:25.017Z75.755° E
8 mins2024-12-03 03:42:25.017Z297.317° NW2024-12-03 03:45:25.017Z281.057° WNW44.592°2024-12-03 03:50:25.017Z121.144° SE
6 mins2024-12-03 05:26:25.017Z260.86° W2024-12-03 05:28:25.017Z232.748° WSW19.105°2024-12-03 05:32:25.017Z179.154° S
|